Zurück zum Katalog

STARLINK-32939

AktivKommunikationVLEO
NORAD 63149·PAYLOAD·🇺🇸 United States

Gestartet Mar 3, 2025 von Cape Canaveral Space Force Station

Loading…

Nächste Überflüge (nächste 24 Stunden)

TLE

AktuellSource: CelesTrak SupGP

Epoche: Sep 14, 2026, 22:27 UTC

1 63149C 25043T   26257.93590278  .00025538  00000+0  92514-3 0  2575
2 63149  43.0015  27.2706 0001600 280.2870 213.8315 15.27560569    16

Verfolge STARLINK-32939 in Echtzeit mit AllMySat

Download on the App Store